CAPE
1198 1297 1368 1522 1645 1724 1862 1977 1925 1970 1946 1909 1877 1800 1889 1873 1760 1675 1599 1494 1354 1099 1004 933 893 844 928 1041 765 641 570 416 392 505 557 615 720 706 601 678 881 835 1031 1119 1375 1575 1596 1600 1529 1508 1493 1589 1553 761 289 326 373 629 817 678 543 403
924 1079 1137 1300 1478 1610 1772 1763 1672 1658 1691 1793 1893 1925 1799 1748 1901 1584 1605 1481 1129 1221 895 907 781 1055 1192 1126 813 835 758 671 531 560 626 614 814 642 800 773 812 796 812 1076 1290 1439 1569 1749 1735 1682 1630 1598 1202 525 476 714 597 767 416 344 290 800
767 846 948 1102 1333 1501 1595 1564 1610 1585 1701 1839 1987 2157 1679 1963 1645 1542 1516 1385 1408 1406 1003 1010 1152 1272 1128 983 911 978 978 927 780 651 724 841 706 826 766 810 896 844 832 772 1072 1098 1114 1210 1174 1665 1920 1569 833 425 374 596 696 612 79 139 371 1307
577 606 695 942 1162 1287 1410 1488 1526 1559 1645 1693 1789 1687 1659 1724 1635 1567 1485 1364 1402 1613 1545 1190 1984 1905 1507 979 1004 1095 1042 911 907 779 818 911 940 977 860 842 857 896 872 588 165 287 666 975 1239 1198 1002 797 475 350 367 643 867 701 256 730 396 1602
587 536 525 727 849 1018 1261 1381 1458 1518 1614 1672 1728 1714 1580 1711 1786 1539 1540 1468 1547 1586 1634 1314 1748 1774 1343 795 759 859 951 927 826 901 917 754 636 561 903 763 538 611 374 176 6 0 51 508 845 1079 1105 949 707 549 534 627 813 864 432 426 607 1624
718 638 407 205 294 634 677 1154 1369 1450 1578 1623 1736 1765 1656 1548 1661 1571 1428 1466 1442 646 1262 1258 1012 1478 1361 925 806 962 972 953 955 831 988 894 677 621 413 398 33 403 305 0 53 0 0 21 150 854 1018 956 842 738 656 701 860 328 143 70 721 1760
942 692 413 139 152 381 34 300 1276 1353 1377 1443 1607 1609 1467 1173 1061 1175 1105 657 134 198 135 686 239 708 1156 1309 1220 1098 1093 1035 1042 834 777 745 602 849 787 619 545 465 428 65 24 126 0 0 0 336 758 892 794 714 782 874 764 87 105 72 730 1979
1014 665 640 491 341 282 76 361 1001 1372 1300 1167 1316 1311 951 776 605 806 992 677 581 624 589 1077 758 634 653 1104 1760 1760 1562 1487 1355 1195 1058 941 667 1153 1062 946 911 608 20 0 0 13 10 285 156 5 674 837 754 705 677 670 558 74 313 134 626 1973
926 776 701 524 580 283 294 240 810 1013 1044 1220 983 658 627 724 663 309 705 498 728 901 1567 1109 808 797 768 622 1028 1511 1867 1611 1415 1050 1276 1353 1929 2088 1963 1995 1598 1330 1019 765 738 817 1072 1081 908 476 2 6 16 7 146 98 62 216 489 523 338 1520
981 779 664 517 375 460 580 372 530 703 667 1112 535 601 642 656 231 307 486 1146 1313 1601 1399 1155 1048 958 834 814 1072 1330 1298 1614 1510 1656 1357 1448 1686 2050 1847 1697 1853 1483 1183 1190 1124 1335 1382 1219 1105 961 690 401 126 105 46 0 107 184 172 543 596 1047
941 767 650 643 588 664 534 444 429 394 261 645 566 278 193 297 282 356 311 1571 1881 2083 1382 1230 1279 1298 1420 1343 1320 1406 1174 1286 1209 1833 2106 1819 1844 1717 1653 1674 1446 1346 1176 1162 1197 1374 1368 1323 1277 1184 1079 866 682 502 240 1 91 452 606 755 952 850
835 717 606 479 477 470 276 339 267 121 329 591 363 522 662 1260 1722 1408 1619 1818 1939 1994 1729 1476 1301 1252 1067 1119 1258 1231 1101 1331 1488 1571 1807 1593 1445 1354 1402 1463 1367 1324 1398 1553 1455 1464 1400 1359 1305 1194 1095 942 863 851 780 620 289 380 270 589 1119 1171
708 708 576 432 383 371 494 281 66 365 1099 1329 1595 1597 1756 1888 1838 1852 1956 2000 1976 1886 1765 1948 1804 1148 1779 1139 1223 1502 1609 1712 1509 1840 1678 1521 1746 1800 1673 1624 1378 1534 1419 1432 1443 1270 1292 1400 1268 1178 1075 1094 1036 1091 1109 1021 829 674 511 389 575 1365
672 670 458 509 509 580 677 890 1428 1512 1636 1730 1764 1766 1862 1978 1913 1968 1926 2064 1981 2030 1767 1859 1955 1856 1481 1360 1410 1593 1555 1684 1796 1922 2037 2016 1914 1967 1507 1327 1527 1305 1712 1296 1149 1180 1224 1226 1189 1170 1178 1125 867 934 1076 1138 1056 891 838 747 592 1344
572 476 278 831 1093 883 860 1045 1325 1409 1441 1510 1580 1615 1484 1734 1433 1716 1872 1952 1931 2111 1863 1852 1812 1869 1675 1704 1574 1363 1594 1392 1920 1464 1528 2085 1834 1516 1397 1406 1212 1113 1098 1042 1029 1002 988 1026 1193 1260 1175 1055 937 1023 1137 1016 1100 1028 1120 1098 914 808
1229 1297 1121 994 968 997 958 1109 1306 1350 1304 1210 1299 1329 1210 1445 1439 1589 1517 1464 1436 1389 1474 1585 1580 1714 1756 1551 1412 1237 1206 1390 1496 1512 1709 1526 1313 1285 1259 1201 1182 1150 1006 869 884 890 920 999 968 936 1013 1052 1192 1231 1137 1163 1198 1200 1268 1210 1104 1061
1070 1022 1004 968 903 846 912 1065 1122 1272 1195 1090 1160 1163 1056 1232 1344 1499 1412 1194 1365 1352 898 1387 1323 1636 1614 1436 1657 1293 1363 1683 1625 1853 1460 1441 1410 1236 991 1146 981 1054 1079 1007 950 938 959 909 912 998 1078 1116 1087 1131 1199 1229 1235 1224 1214 1165 1148 1147
965 953 977 1003 968 947 958 987 1087 1095 1071 1210 1070 1015 941 1071 1204 1204 1215 1197 1226 1183 1147 1260 1143 1374 1572 1600 1536 1148 1488 1361 1839 1774 1581 1302 1182 1211 1160 750 998 917 948 1011 997 950 936 934 911 1065 1096 924 861 967 1032 1059 1192 1318 1347 1260 1159 1086
1034 989 998 956 954 992 1099 1196 1206 1188 1094 1099 1053 902 934 1151 1154 903 1114 1199 1168 936 1306 1151 1402 1420 1228 1389 1403 1358 1724 1812 1804 1444 1486 1364 1259 1175 900 954 937 969 972 939 950 1029 1041 1043 923 899 893 898 856 876 922 984 1093 1225 1270 1317 1313 1305
1118 1087 1098 1106 1012 977 1034 1033 983 1144 987 930 975 844 874 983 962 972 1065 1133 1258 999 1060 1166 1460 1212 1484 1547 1824 1766 1745 1608 1396 1579 1496 1218 861 903 864 1120 992 1069 1018 936 836 972 989 983 766 761 822 784 766 739 804 973 1109 1212 1326 1404 1436 1464
1056 1086 1166 1096 1015 923 984 1045 1008 888 780 956 758 774 637 772 790 939 937 1110 1059 1041 911 998 1125 1174 1284 1315 1068 983 885 798 750 738 738 653 680 745 462 776 962 891 934 866 721 925 1027 750 669 632 516 532 551 602 318 488 891 1212 1394 1432 1477 1561
1140 1094 1055 1002 988 945 960 928 953 885 715 848 934 725 715 687 688 710 675 704 890 958 892 823 872 1057 1013 1065 952 871 743 709 639 526 478 557 536 462 457 476 466 487 542 614 566 685 646 804 672 614 508 489 527 98 498 1591 1359 1418 1388 1345 1351 1317
1099 993 937 903 863 850 840 831 840 696 655 792 788 724 772 782 670 526 380 238 590 741 825 798 708 692 904 922 906 784 678 562 480 345 154 373 396 398 410 411 405 409 458 423 384 432 571 581 638 660 543 504 451 429 422 1077 503 247 359 736 994 1294
974 792 723 700 669 726 774 744 659 633 640 764 766 792 690 600 600 520 505 517 695 802 839 728 611 541 576 688 734 658 619 425 0 1 9 17 0 21 21 276 277 330 323 98 121 205 386 485 537 616 400 468 529 469 394 360 380 236 718 829 1164 1204
758 740 747 665 686 707 705 646 600 598 674 677 797 746 639 691 680 643 620 695 762 724 654 606 550 510 430 386 481 590 576 353 138 0 0 0 0 0 0 0 0 0 0 2 6 38 16 137 336 442 305 337 345 452 420 506 455 399 887 278 472 560
690 690 732 680 652 681 598 603 566 665 690 731 629 462 588 659 618 611 686 599 558 436 344 0 0 0 0 0 0 0 0 0 0 0 0 0 0 0 0 0 0 0 0 0 0 0 0 0 0 113 199 158 270 260 235 376 495 450 324 284 290 283
800 737 661 659 667 675 578 559 567 625 580 594 445 526 627 669 688 587 447 369 320 0 0 0 0 0 0 0 0 0 0 0 0 0 0 0 0 0 0 0 0 0 0 0 0 0 0 0 0 0 0 96 56 32 66 106 127 101 33 77 42 111
797 767 715 679 730 621 529 645 640 571 474 379 481 564 585 521 484 424 362 296 0 0 0 0 0 0 0 0 0 0 0 0 0 0 0 0 0 0 0 0 0 0 0 0 0 0 0 0 0 0 0 0 0 0 0 59 70 8 19 5 0 0
799 757 780 803 709 639 622 640 622 575 480 459 502 534 510 520 481 369 74 0 0 0 0 0 0 0 0 0 0 0 0 0 0 0 0 0 0 0 0 0 0 0 0 0 0 0 0 0 0 0 0 0 0 0 0 0 0 0 3 3 0 0
771 793 756 644 527 526 541 482 538 567 542 520 497 469 404 405 376 316 0 0 0 0 0 0 0 0 0 0 0 0 0 0 0 0 0 0 0 0 0 0 0 0 0 0 0 0 0 0 0 0 0 0 0 0 0 0 4 6 4 14 16 8
783 722 663 623 552 492 434 420 485 526 480 488 439 374 312 279 48 0 0 2 0 1 0 0 0 0 0 0 0 0 0 0 0 0 0 0 0 0 0 0 0 0 0 0 0 0 0 0 0 0 0 0 0 0 6 17 17 16 16 14 7 4
635 591 556 541 548 469 425 421 505 534 518 451 386 345 296 241 0 0 4 0 0 0 0 0 0 0 0 0 0 0 0 0 0 0 0 0 0 0 0 0 0 0 0 0 0 0 0 0 0 1 0 0 0 2 11 26 22 16 14 14 19 17
503 447 452 444 484 435 488 546 540 518 449 412 341 332 264 229 0 0 15 0 0 0 0 0 0 0 0 0 0 0 0 0 0 0 0 0 0 0 0 0 0 0 0 0 0 0 0 0 0 0 0 0 1 7 15 26 16 4 2 9 13 18
370 406 415 510 488 461 488 513 504 456 462 384 334 242 0 28 0 0 8 0 0 0 0 0 0 0 0 0 0 0 0 0 0 0 0 0 0 0 0 0 0 0 0 0 0 0 0 2 0 3 1 2 0 0 0 1 1 0 0 1 5 7
312 328 345 428 433 453 476 476 462 462 393 350 275 240 180 103 55 0 0 0 0 0 0 0 0 0 0 0 0 0 0 0 0 0 0 0 0 0 0 0 0 0 0 0 0 0 0 0 0 0 0 0 0 0 0 0 0 0 1 0 0 0
288 300 312 346 450 456 381 407 392 397 368 240 251 230 191 71 0 0 0 0 0 0 0 0 0 0 0 0 0 0 0 0 0 0 0 0 0 0 0 0 0 0 0 0 0 0 0 0 0 0 0 0 0 0 0 0 0 0 2 0 0 0
311 316 216 371 370 389 366 384 376 313 189 0 0 0 0 0 0 0 0 0 0 0 0 0 0 0 0 0 0 0 0 0 0 0 0 0 0 0 0 0 0 0 0 0 0 0 0 0 0 0 0 0 0 0 0 3 2 4 4 0 0 0
Wind_Speed
31 29 27 25 21 19 19 24 23 26 26 24 20 20 19 20 21 22 22 23 22 18 17 16 17 16 20 17 19 19 16 14 12 12 13 13 12 12 11 11 9 9 8 9 9 11 11 11 11 11 11 11 9 8 8 7 6 8 15 13 13 15
27 27 26 23 19 17 18 21 19 18 18 18 17 17 15 14 18 16 21 19 16 16 16 16 16 18 16 17 18 19 17 14 12 12 11 11 11 11 11 10 10 10 10 9 9 9 10 12 15 15 14 13 10 10 10 9 8 9 14 14 13 16
25 25 24 21 18 17 19 19 19 18 16 17 15 15 13 14 14 15 15 15 15 14 15 15 15 18 17 19 17 19 16 14 13 12 11 11 10 11 11 12 12 11 11 11 9 10 12 13 14 17 17 14 12 12 12 11 11 10 nan 16 15 21
24 23 21 19 18 17 18 18 18 17 16 15 14 14 13 14 14 14 14 14 14 13 15 16 18 22 19 16 15 17 16 14 13 13 13 11 12 13 14 14 13 14 12 11 12 13 14 15 15 16 15 15 14 13 14 13 13 12 15 18 17 24
23 21 19 18 17 16 17 18 18 18 16 15 14 13 12 13 13 13 12 12 12 13 15 16 16 17 18 16 15 13 12 11 10 10 13 11 10 9 10 10 9 11 12 12 nan nan nan 16 17 17 17 16 15 14 14 14 13 11 15 16 18 26
20 19 18 17 16 16 18 19 19 18 16 15 14 13 12 13 13 12 10 11 11 14 16 14 16 18 18 16 15 13 12 11 10 10 11 11 10 10 9 9 nan 10 11 nan nan nan nan nan 16 17 17 17 17 15 15 14 14 13 15 nan 19 26
19 19 18 16 16 18 nan 18 19 18 16 15 14 13 13 14 13 13 13 14 13 10 12 14 13 15 16 15 14 11 11 12 11 11 11 11 9 10 10 10 9 10 10 nan nan 12 nan nan nan 16 18 18 18 18 17 16 17 nan 17 nan 18 25
18 17 16 15 17 19 nan 19 18 17 17 15 15 14 15 14 14 15 15 14 13 11 11 13 14 14 14 15 13 11 11 12 12 10 11 12 11 12 13 12 12 12 nan nan nan nan nan 12 13 nan 17 16 17 18 18 18 18 nan 18 20 21 24
16 15 15 17 20 19 20 20 18 16 17 16 16 16 18 17 16 15 17 15 13 12 13 15 14 12 12 12 11 10 10 10 11 12 12 12 11 11 12 13 14 15 15 15 15 15 16 14 13 14 nan nan nan nan 17 nan nan 14 18 20 21 22
14 16 19 22 22 21 20 20 18 17 18 19 18 21 20 19 17 18 17 15 15 16 15 16 14 11 12 9 9 8 7 8 5 7 7 7 7 8 7 7 8 9 9 11 10 10 10 9 10 9 12 14 13 13 nan nan 16 15 17 19 21 21
16 20 24 26 24 22 21 21 20 20 21 23 23 23 22 20 19 19 18 18 18 16 17 16 16 12 10 9 7 6 5 5 4 4 7 7 7 8 7 7 9 10 11 10 11 12 12 12 12 12 12 11 12 14 15 nan nan 19 19 21 20 20
18 24 26 25 23 22 22 22 21 22 24 23 22 23 22 22 22 21 21 21 19 18 16 16 16 13 11 9 7 5 5 5 4 5 7 7 6 7 7 7 7 9 11 12 11 12 13 14 14 14 14 14 13 12 14 16 17 17 18 19 21 21
21 23 24 22 20 20 22 23 nan 24 25 24 24 24 24 24 23 22 22 21 20 19 17 15 15 13 11 9 6 7 6 5 5 5 7 6 6 6 7 8 8 9 9 10 11 11 12 14 15 14 15 16 16 16 16 17 17 15 17 18 19 22
20 21 20 19 19 21 23 25 26 26 26 25 24 24 24 24 22 21 20 19 19 19 18 15 13 12 10 7 7 8 7 5 5 7 7 7 7 7 7 7 9 9 10 11 12 12 13 13 15 16 17 18 18 18 17 17 19 19 19 19 19 20
20 19 18 20 23 23 23 25 26 26 25 24 23 25 26 23 19 17 18 17 19 19 20 16 12 12 12 13 12 9 10 8 7 9 8 8 9 7 7 8 9 9 10 10 12 12 14 15 16 16 17 16 17 18 19 20 20 21 21 21 22 23
20 22 22 24 23 24 26 26 26 26 25 22 24 25 27 21 18 18 21 22 24 22 21 18 13 13 14 13 12 12 9 9 4 10 8 8 8 7 6 8 9 11 11 10 12 12 13 13 15 16 16 16 17 18 19 20 21 21 23 24 24 23
23 22 23 25 25 26 28 29 28 25 24 24 24 25 26 25 24 22 22 25 27 27 23 18 17 15 14 12 10 11 10 6 9 10 10 8 7 6 7 7 9 9 12 13 12 12 12 13 14 15 16 16 17 18 19 20 21 22 23 24 24 22
23 23 23 25 26 27 27 29 28 25 25 27 26 26 27 27 26 23 24 26 28 28 26 21 16 11 12 8 10 10 10 8 8 8 8 7 5 6 8 11 10 10 10 12 11 12 11 12 13 14 14 14 15 17 19 20 21 22 23 22 22 23
25 25 25 27 29 29 28 29 28 27 27 28 26 27 28 28 27 26 27 28 29 29 19 15 13 11 11 9 9 8 7 5 5 6 6 5 5 6 8 10 12 10 10 10 11 11 12 12 13 14 14 13 14 16 17 19 20 21 22 23 23 24
26 26 26 28 30 31 28 28 30 27 27 27 27 28 28 28 27 27 27 26 24 23 20 15 11 9 8 7 6 4 5 5 5 6 6 6 6 7 8 10 10 11 10 10 10 11 13 13 13 14 14 14 15 16 16 18 20 21 22 22 23 24
25 26 28 28 29 30 30 30 31 30 29 26 25 26 28 28 29 27 24 21 18 20 17 8 5 9 12 11 10 7 8 9 9 9 9 8 7 9 10 10 9 11 11 11 11 12 12 13 14 14 16 16 14 16 17 18 20 20 20 20 21 22
23 25 27 29 30 29 28 30 31 30 30 29 26 28 29 29 31 29 25 22 18 14 12 12 13 15 14 12 11 10 11 11 11 9 9 9 10 10 11 12 12 12 11 12 12 12 10 13 15 15 13 14 16 nan 16 22 24 22 19 19 20 22
22 26 28 30 30 29 28 31 30 28 31 31 31 29 28 28 28 26 22 21 17 13 16 15 17 18 16 14 13 12 11 11 11 10 10 11 12 13 13 14 14 14 12 13 13 13 13 15 13 13 15 18 17 17 16 19 20 16 15 17 19 21
23 26 29 28 29 28 30 31 32 31 31 32 33 31 29 26 23 19 21 22 22 21 19 18 20 20 17 16 14 13 11 11 nan nan nan nan nan nan nan 15 15 15 16 nan 15 14 16 16 16 15 17 18 18 18 17 20 15 15 18 20 20 19
26 27 27 27 29 30 31 30 31 31 31 32 31 30 27 24 22 24 25 27 26 23 21 21 21 19 17 15 13 12 11 10 11 nan nan nan nan nan nan nan nan nan nan nan nan nan nan 19 18 22 20 19 19 21 22 16 13 20 23 18 17 19
25 23 21 22 26 27 26 27 27 28 29 27 26 25 25 23 23 23 24 23 24 22 22 nan nan nan nan nan nan nan nan nan nan nan nan nan nan nan nan nan nan nan nan nan nan nan nan nan nan 25 24 25 23 20 17 16 17 16 20 24 22 21
22 21 18 20 22 24 24 24 26 28 29 28 27 23 21 22 21 22 23 23 20 nan nan nan nan nan nan nan nan nan nan nan nan nan nan nan nan nan nan nan nan nan nan nan nan nan nan nan nan nan nan nan nan nan nan 23 22 17 nan nan nan 22
21 21 21 23 22 21 23 23 26 27 27 27 26 24 23 21 21 23 23 20 nan nan nan nan nan nan nan nan nan nan nan nan nan nan nan nan nan nan nan nan nan nan nan nan nan nan nan nan nan nan nan nan nan nan nan nan nan nan nan nan nan nan
19 20 23 24 24 21 20 22 23 24 25 22 21 20 20 21 21 22 nan nan nan nan nan nan nan nan nan nan nan nan nan nan nan nan nan nan nan nan nan nan nan nan nan nan nan nan nan nan nan nan nan nan nan nan nan nan nan nan nan nan nan nan
14 16 19 22 23 22 20 21 22 21 24 20 17 16 17 19 19 18 nan nan nan nan nan nan nan nan nan nan nan nan nan nan nan nan nan nan nan nan nan nan nan nan nan nan nan nan nan nan nan nan nan nan nan nan nan nan nan nan nan nan nan nan
14 15 16 17 17 19 18 18 18 16 17 18 16 17 19 19 nan nan nan nan nan nan nan nan nan nan nan nan nan nan nan nan nan nan nan nan nan nan nan nan nan nan nan nan nan nan nan nan nan nan nan nan nan nan nan nan nan nan nan nan nan nan
17 15 13 12 12 15 18 18 17 16 16 17 18 20 21 19 nan nan nan nan nan nan nan nan nan nan nan nan nan nan nan nan nan nan nan nan nan nan nan nan nan nan nan nan nan nan nan nan nan nan nan nan nan nan nan nan nan nan nan nan nan nan
17 13 13 12 13 15 17 16 15 15 16 19 21 21 20 19 nan nan nan nan nan nan nan nan nan nan nan nan nan nan nan nan nan nan nan nan nan nan nan nan nan nan nan nan nan nan nan nan nan nan nan nan nan nan nan nan nan nan nan nan nan nan
18 14 14 13 12 14 16 16 17 20 20 19 20 20 nan nan nan nan nan nan nan nan nan nan nan nan nan nan nan nan nan nan nan nan nan nan nan nan nan nan nan nan nan nan nan nan nan nan nan nan nan nan nan nan nan nan nan nan nan nan nan nan
18 14 14 13 13 15 16 18 20 20 18 17 18 18 19 20 nan nan nan nan nan nan nan nan nan nan nan nan nan nan nan nan nan nan nan nan nan nan nan nan nan nan nan nan nan nan nan nan nan nan nan nan nan nan nan nan nan nan nan nan nan nan
18 14 13 13 13 15 16 16 17 17 16 17 17 18 20 nan nan nan nan nan nan nan nan nan nan nan nan nan nan nan nan nan nan nan nan nan nan nan nan nan nan nan nan nan nan nan nan nan nan nan nan nan nan nan nan nan nan nan nan nan nan nan
17 14 12 12 12 12 13 14 14 15 16 nan nan nan nan nan nan nan nan nan nan nan nan nan nan nan nan nan nan nan nan nan nan nan nan nan nan nan nan nan nan nan nan nan nan nan nan nan nan nan nan nan nan nan nan nan nan nan nan nan nan nan
Wind_Direction
285 285 282 277 270 272 284 290 289 294 297 300 301 305 309 311 308 310 311 315 316 315 318 322 322 324 327 328 332 335 341 348 360 0 2 8 11 16 24 32 36 35 39 33 23 27 37 40 46 50 51 52 55 36 36 46 28 2 333 343 339 335
283 282 278 271 265 265 271 275 268 276 283 293 297 301 296 293 303 304 316 319 316 318 320 323 328 329 326 327 329 334 339 347 354 2 7 12 15 21 30 36 41 45 44 42 39 22 23 33 40 39 38 42 28 25 33 36 47 4 340 340 345 340
281 279 275 267 262 263 265 263 266 270 275 285 290 285 282 292 293 307 314 321 323 320 322 327 328 328 327 329 329 333 338 342 349 358 6 14 21 26 32 38 43 50 55 51 32 27 26 23 23 36 32 23 20 20 24 33 45 8 nan 342 348 345
277 274 266 259 259 262 261 262 263 265 269 271 272 278 283 291 301 314 323 328 327 323 326 327 337 332 329 321 325 330 336 340 348 358 5 9 24 29 34 38 41 46 50 43 32 26 26 24 19 15 15 14 14 16 19 23 35 12 351 343 346 350
271 264 257 255 260 263 259 260 262 263 266 269 273 275 285 291 303 321 331 328 327 323 327 329 318 315 310 317 319 317 322 331 339 347 0 357 6 21 27 33 36 42 42 40 nan nan nan 23 18 13 11 12 10 14 18 21 23 20 351 344 344 349
265 256 253 251 257 258 257 260 261 263 265 268 272 276 285 294 305 319 324 311 323 317 313 317 311 312 317 313 311 317 321 327 337 345 347 354 358 5 20 32 nan 38 41 nan nan nan nan nan 16 10 11 8 7 10 14 15 18 360 345 nan 350 348
253 249 251 252 252 248 nan 255 258 261 266 267 272 275 282 290 302 292 302 301 298 308 308 310 311 308 298 298 311 315 315 320 331 343 349 345 350 5 12 17 27 30 31 nan nan 31 nan nan nan 15 12 7 2 3 5 10 16 nan 343 nan 347 351
248 249 249 254 250 249 nan 252 258 264 269 270 274 273 278 279 278 279 287 296 305 304 311 299 302 288 290 287 290 302 307 319 324 343 349 339 359 10 8 8 13 14 nan nan nan nan nan 29 32 nan 14 10 2 360 1 5 10 nan 346 343 347 355
251 253 250 249 248 249 250 253 258 262 267 270 271 272 269 268 276 281 284 294 298 299 288 301 298 294 294 291 290 284 294 300 320 339 339 350 349 343 347 349 350 354 359 4 5 6 5 5 5 4 nan nan nan nan 351 nan nan 357 346 347 348 356
246 238 245 244 243 248 252 259 262 264 265 262 268 263 268 269 273 275 279 286 294 294 296 298 298 293 280 271 267 277 282 281 281 310 318 332 341 337 338 338 342 340 346 348 347 352 343 346 348 346 349 357 3 3 nan nan 350 355 345 349 349 353
223 230 233 240 245 250 256 259 261 258 255 251 257 263 266 269 273 274 279 277 284 293 298 298 301 297 290 279 270 267 255 268 271 295 307 318 323 321 328 337 348 354 347 346 349 344 338 337 340 339 336 337 342 344 352 nan nan 343 339 343 347 349
225 235 240 239 244 250 254 256 260 259 253 253 256 258 259 258 259 263 270 278 282 287 292 299 297 299 296 290 280 270 252 263 298 295 296 304 310 319 330 344 346 347 345 340 341 336 337 335 334 335 331 330 330 330 337 342 347 344 340 335 342 344
230 239 242 246 247 250 249 254 nan 252 251 250 251 254 254 254 256 262 267 274 279 286 290 292 297 299 293 288 287 274 264 266 266 280 293 303 312 319 317 326 333 332 330 329 327 331 331 329 328 328 326 327 324 325 323 326 339 339 336 336 336 338
240 243 248 251 250 247 247 250 249 250 253 254 254 257 257 253 255 259 265 271 280 285 289 290 292 295 289 283 265 259 261 265 264 280 289 293 286 300 308 314 332 322 329 326 329 334 331 331 333 328 325 324 323 325 322 320 325 334 337 336 335 318
245 246 245 243 245 250 250 251 251 251 253 257 259 261 261 255 253 250 262 269 275 277 282 282 280 278 267 263 254 249 251 240 263 267 269 286 294 309 318 335 331 328 331 330 331 335 333 336 334 331 330 327 327 326 322 324 324 328 334 338 328 325
247 247 245 249 248 251 251 250 250 252 252 251 257 260 263 266 261 254 250 251 244 245 251 251 255 261 261 252 253 252 250 262 250 260 270 285 292 307 328 329 329 329 324 328 324 328 329 329 328 329 329 329 330 327 326 326 326 327 327 325 328 327
259 259 257 256 253 251 252 252 253 255 257 257 258 259 260 258 256 256 255 256 263 265 265 256 244 241 241 241 250 261 249 258 255 264 268 279 288 308 314 323 318 319 322 329 325 328 327 327 327 328 327 327 329 326 327 329 329 328 324 322 324 329
272 270 268 265 262 259 256 258 258 256 256 257 259 260 260 259 259 258 261 261 261 263 263 258 259 246 246 247 259 262 254 249 252 266 277 281 299 307 313 309 306 310 306 314 321 326 331 329 326 324 324 328 329 328 330 329 330 327 325 324 325 326
270 270 269 269 267 264 261 262 263 261 258 260 261 261 262 261 261 260 261 263 264 263 257 258 255 255 257 252 248 251 253 270 279 271 275 280 298 305 304 298 302 307 306 315 326 331 332 329 323 322 326 332 329 329 329 329 328 327 326 325 325 326
266 271 272 270 270 269 266 267 267 265 260 259 261 263 265 266 266 264 264 266 272 269 250 238 256 244 263 260 261 251 273 271 261 273 276 275 276 282 287 298 300 303 303 310 315 325 320 317 321 321 323 326 330 328 327 328 325 325 321 321 323 321
272 276 276 274 272 275 276 273 267 266 264 261 263 264 266 266 264 266 263 266 271 262 252 276 305 279 253 248 248 247 247 248 254 260 264 265 274 280 279 285 295 299 303 306 314 315 315 318 314 317 322 326 326 325 327 323 322 318 320 326 325 323
277 275 272 272 275 274 275 275 273 272 268 265 265 263 261 261 261 257 253 252 257 251 253 268 264 256 255 250 251 251 248 252 255 262 270 273 270 270 268 273 279 283 292 296 304 301 301 307 308 308 311 312 318 nan 318 312 313 312 318 324 324 322
284 276 271 274 275 277 271 271 271 273 272 265 260 261 263 260 259 256 253 257 261 258 260 263 255 252 250 246 247 249 253 257 259 261 264 266 272 270 277 276 277 284 286 293 302 301 288 287 301 313 321 313 310 304 307 307 308 302 313 319 318 318
285 278 275 273 272 272 271 268 266 268 267 266 265 261 259 258 255 255 257 256 252 253 255 249 244 246 249 246 247 249 256 262 nan nan nan nan nan nan nan 280 280 283 288 nan 289 296 287 283 290 294 295 308 317 310 307 309 305 313 314 303 307 315
284 279 275 274 275 277 274 266 265 267 268 268 261 257 258 256 256 257 250 239 239 243 241 238 240 244 246 248 250 253 259 263 266 nan nan nan nan nan nan nan nan nan nan nan nan nan nan 287 287 291 293 299 303 306 305 306 299 317 306 299 309 308
276 275 278 278 282 282 277 272 273 272 267 263 260 253 254 256 253 246 240 238 238 237 238 nan nan nan nan nan nan nan nan nan nan nan nan nan nan nan nan nan nan nan nan nan nan nan nan nan nan 289 291 295 300 303 293 294 300 299 300 316 310 305
274 275 278 282 283 284 279 273 275 275 268 262 258 245 243 245 240 235 243 247 244 nan nan nan nan nan nan nan nan nan nan nan nan nan nan nan nan nan nan nan nan nan nan nan nan nan nan nan nan nan nan nan nan nan nan 294 293 291 nan nan nan 296
274 280 280 280 282 285 284 276 276 275 267 260 255 253 249 243 238 247 256 257 nan nan nan nan nan nan nan nan nan nan nan nan nan nan nan nan nan nan nan nan nan nan nan nan nan nan nan nan nan nan nan nan nan nan nan nan nan nan nan nan nan nan
277 281 279 275 274 272 273 277 277 275 268 258 257 251 248 249 254 262 nan nan nan nan nan nan nan nan nan nan nan nan nan nan nan nan nan nan nan nan nan nan nan nan nan nan nan nan nan nan nan nan nan nan nan nan nan nan nan nan nan nan nan nan
282 278 273 270 266 265 267 270 269 269 268 260 252 251 256 264 265 265 nan nan nan nan nan nan nan nan nan nan nan nan nan nan nan nan nan nan nan nan nan nan nan nan nan nan nan nan nan nan nan nan nan nan nan nan nan nan nan nan nan nan nan nan
293 284 275 271 266 264 262 262 260 253 249 251 256 269 272 268 nan nan nan nan nan nan nan nan nan nan nan nan nan nan nan nan nan nan nan nan nan nan nan nan nan nan nan nan nan nan nan nan nan nan nan nan nan nan nan nan nan nan nan nan nan nan
297 293 281 268 256 254 253 248 236 229 236 251 266 271 269 263 nan nan nan nan nan nan nan nan nan nan nan nan nan nan nan nan nan nan nan nan nan nan nan nan nan nan nan nan nan nan nan nan nan nan nan nan nan nan nan nan nan nan nan nan nan nan
290 282 277 268 257 248 236 222 223 241 259 267 266 264 262 259 nan nan nan nan nan nan nan nan nan nan nan nan nan nan nan nan nan nan nan nan nan nan nan nan nan nan nan nan nan nan nan nan nan nan nan nan nan nan nan nan nan nan nan nan nan nan
286 279 270 262 252 239 225 225 247 268 272 267 259 256 nan nan nan nan nan nan nan nan nan nan nan nan nan nan nan nan nan nan nan nan nan nan nan nan nan nan nan nan nan nan nan nan nan nan nan nan nan nan nan nan nan nan nan nan nan nan nan nan
285 278 268 261 254 247 245 254 266 271 268 261 259 257 255 256 nan nan nan nan nan nan nan nan nan nan nan nan nan nan nan nan nan nan nan nan nan nan nan nan nan nan nan nan nan nan nan nan nan nan nan nan nan nan nan nan nan nan nan nan nan nan
281 273 267 266 260 261 261 263 267 267 263 263 262 259 258 nan nan nan nan nan nan nan nan nan nan nan nan nan nan nan nan nan nan nan nan nan nan nan nan nan nan nan nan nan nan nan nan nan nan nan nan nan nan nan nan nan nan nan nan nan nan nan
275 265 263 261 262 261 261 258 255 257 260 nan nan nan nan nan nan nan nan nan nan nan nan nan nan nan nan nan nan nan nan nan nan nan nan nan nan nan nan nan nan nan nan nan nan nan nan nan nan nan nan nan nan nan nan nan nan nan nan nan nan nan